Regional Weather Roundup
Issued by NWS Cleveland, OH

Home | Current Version | Previous Version | Text Only | Print | Product List | Glossary Off
Versions: 1 2 3 4 5 6 7 8 9 10 11 12 13 14 15 16 17 18 19 20 21 22 23 24 25 26 27 28 29 30 31 32 33 34 35 36 37 38 39 40 41 42 43 44 45 46 47 48 49 50

000
ASUS41 KCLE 202210
RWRCLE
OHIO REGIONAL WEATHER ROUNDUP
NATIONAL WEATHER SERVICE WILMINGTON, OH
600 PM EDT MON APR 20 2015

NOTE: "FAIR" INDICATES FEW OR NO CLOUDS BELOW 12,000 FEET WITH NO
SIGNIFICANT WEATHER AND/OR OBSTRUCTIONS TO VISIBILITY.

OHZ001>008-015>018-024>027-034-035-043-044-202300-
   NORTHWEST OHIO

CITY           SKY/WX    TMP DP  RH WIND       PRES   REMARKS
DEFIANCE       CLOUDY    50  42  74 W15G28    29.53R
FINDLAY        LGT RAIN  52  42  69 W35G51    29.53R
TOLEDO EXPRESS CLOUDY    52  42  69 W21G36    29.50R
TOLEDO EXEC    CLOUDY    52  44  74 W26G39    29.50R
LIMA           CLOUDY    53  44  71 W24G33    29.56R
$$

OHZ009>014-019>023-028>033-038-089-202300-
   NORTHEAST OHIO

CITY           SKY/WX    TMP DP  RH WIND       PRES   REMARKS
CLE-HOPKINS    PTSUNNY   60  46  59 SW21G37   29.48R
CLE-LAKEFRONT  CLOUDY    60  46  59 W23       29.45R
CUY CO. ARPT   PTSUNNY   64  48  55 W17G29    29.46R
LORAIN-ELYRIA  CLOUDY    57  46  66 W23G32    29.50R
ASHTABULA      LGT RAIN  58  52  80 NW7       29.47R
AKRON-CANTON   PTSUNNY   64  46  52 SW20G30   29.49R
WOOSTER        LGT RAIN  62  47  57 W28G35    29.50R
MANSFIELD      CLOUDY    54  44  69 W22G32    29.53R
YOUNGSTOWN     CLOUDY    62  51  67 SW14G28   29.47R
$$

OHZ042-051>053-060>062-070>072-077>081-202300-
  SOUTHWEST OHIO

CITY           SKY/WX    TMP DP  RH WIND       PRES   REMARKS
CINC-COVINGTON CLOUDY    57  41  55 W14G21    29.62S
CINC-LUNKEN    CLOUDY    58  43  57 W12G23    29.63R
HAMILTON       CLOUDY    58  40  51 W15G28    29.62R
DAYTON         CLOUDY    54  42  64 W20G29    29.60R
WRIGHT-PAT AFB PTSUNNY   55  43  63 W20G35    29.59R
DAYTON GENERAL CLOUDY    56  42  59 W13G23    29.60R
WILMINGTON     CLOUDY    55  40  56 W16G26    29.60R
$$

OHZ036-037-039>041-045>050-054>059-063>069-073>076-082>088-202300-
  CENTRAL AND SOUTHEAST OHIO

CITY           SKY/WX    TMP DP  RH WIND       PRES   REMARKS
COLUMBUS       CLOUDY    56  44  64 W22G30    29.57R
OSU AIRPORT    CLOUDY    55  42  61 W20G30    29.58R
BOLTON FIELD   CLOUDY    55  45  67 W14G23    29.59R
RICKENBACK AFB CLOUDY    57  46  65 W20G29    29.58R
NEWARK         CLOUDY    61  47  59 W16G30    29.54R
MARION         CLOUDY    54  40  59 W18G26    29.56R
LANCASTER      CLOUDY    60  47  61 W20G28    29.57R
ZANESVILLE     LGT RAIN  57  53  86 SW12      29.55R
NEW PHILLY     HVY RAIN  62  54  74 S7        29.52R VSB 3/4
$$



USA.gov is the U.S. government's official web portal to all federal, state and local government web resources and services.